BAW282 EGLL-EDDF

Flight info

Callsign BAW282
Flight time 1h 5m
Altitude 35000
Route DET L6 DVR UL9 KONAN UL607 SPI T180 NIVNU T847 IMCOM IMCOM1D
Aircraft A320/M-SDE3FGHIRWY/LB1

Departure

Time 2026-04-14 11:07
Airport London Heathrow Airport (EGLL)

Arrival

Time 2026-04-14 12:13
Airport Frankfurt Main Airport (EDDF)
Time Latitude Longitude Altitude Speed Heading
2026-04-14 10:29 51.47087 -0.48584 90 ft 0 kts 270°
2026-04-14 10:58 51.47087 -0.48554 86 ft 4 kts 270°
2026-04-14 10:59 51.47087 -0.48512 86 ft 4 kts 261°
2026-04-14 10:59 51.47097 -0.48478 89 ft 4 kts 206°
2026-04-14 10:59 51.47116 -0.48472 89 ft 4 kts 180°
2026-04-14 10:59 51.47127 -0.48472 88 ft 0 kts 180°
2026-04-14 11:02 51.47125 -0.48472 86 ft 2 kts 180°
2026-04-14 11:02 51.47099 -0.48472 73 ft 5 kts 180°
2026-04-14 11:02 51.47049 -0.48471 86 ft 9 kts 179°
2026-04-14 11:03 51.46977 -0.48470 90 ft 10 kts 180°
2026-04-14 11:03 51.46896 -0.48470 88 ft 13 kts 180°
2026-04-14 11:03 51.46794 -0.48470 86 ft 16 kts 180°
2026-04-14 11:03 51.46675 -0.48468 86 ft 18 kts 179°
2026-04-14 11:04 51.46591 -0.48468 86 ft 0 kts 178°
2026-04-14 11:04 51.46590 -0.48468 87 ft 0 kts 178°
2026-04-14 11:05 51.46583 -0.48467 87 ft 3 kts 178°
2026-04-14 11:05 51.46553 -0.48467 87 ft 6 kts 180°
2026-04-14 11:05 51.46500 -0.48450 88 ft 9 kts 150°
2026-04-14 11:06 51.46479 -0.48342 87 ft 12 kts 90°
2026-04-14 11:06 51.46480 -0.48200 88 ft 17 kts 90°
2026-04-14 11:06 51.46479 -0.47954 87 ft 8 kts 90°
2026-04-14 11:06 51.46479 -0.47947 87 ft 0 kts 90°
2026-04-14 11:07 51.46479 -0.47875 87 ft 27 kts 90°
2026-04-14 11:07 51.46482 -0.47109 87 ft 112 kts 90°
2026-04-14 11:07 51.46470 -0.45486 360 ft 161 kts 94°
2026-04-14 11:07 51.46497 -0.43637 1213 ft 167 kts 94°
2026-04-14 11:08 51.46442 -0.41793 1859 ft 166 kts 115°
2026-04-14 11:08 51.45764 -0.40220 2162 ft 185 kts 135°
2026-04-14 11:08 51.45024 -0.38344 2573 ft 214 kts 120°
2026-04-14 11:08 51.44282 -0.36127 3116 ft 238 kts 124°
2026-04-14 11:09 51.43581 -0.33615 3873 ft 257 kts 110°
2026-04-14 11:09 51.43128 -0.30804 4834 ft 265 kts 108°
2026-04-14 11:09 51.42689 -0.27886 5633 ft 275 kts 107°
2026-04-14 11:10 51.41851 -0.21846 5984 ft 278 kts 106°
2026-04-14 11:10 51.41445 -0.18814 5993 ft 279 kts 105°
2026-04-14 11:10 51.41041 -0.15788 5996 ft 279 kts 106°
2026-04-14 11:10 51.40631 -0.12745 5996 ft 279 kts 106°
2026-04-14 11:11 51.40217 -0.09701 6000 ft 279 kts 105°
2026-04-14 11:11 51.39806 -0.06712 6001 ft 279 kts 107°
2026-04-14 11:11 51.39381 -0.03650 6003 ft 278 kts 107°
2026-04-14 11:11 51.38956 -0.00622 6002 ft 278 kts 106°
2026-04-14 11:12 51.38532 0.02400 6007 ft 279 kts 105°
2026-04-14 11:12 51.38112 0.05419 6009 ft 278 kts 107°
2026-04-14 11:12 51.37698 0.08404 6010 ft 278 kts 105°
2026-04-14 11:12 51.37278 0.11419 6010 ft 278 kts 105°
2026-04-14 11:13 51.36856 0.14441 6012 ft 278 kts 107°
2026-04-14 11:13 51.36432 0.17460 6010 ft 278 kts 105°
2026-04-14 11:13 51.36007 0.20481 6011 ft 278 kts 105°
2026-04-14 11:13 51.35583 0.23491 6010 ft 278 kts 106°
2026-04-14 11:14 51.35156 0.26506 6011 ft 278 kts 106°
2026-04-14 11:14 51.34727 0.29526 6014 ft 278 kts 106°
2026-04-14 11:14 51.34300 0.32535 6013 ft 277 kts 107°
2026-04-14 11:14 51.33874 0.35538 6016 ft 277 kts 107°
2026-04-14 11:15 51.33441 0.38561 6018 ft 278 kts 107°
2026-04-14 11:15 51.33008 0.41588 6015 ft 279 kts 106°
2026-04-14 11:15 51.32575 0.44611 5902 ft 280 kts 107°
2026-04-14 11:15 51.32140 0.47640 5905 ft 279 kts 105°
2026-04-14 11:16 51.31705 0.50652 5906 ft 278 kts 105°
2026-04-14 11:16 51.31268 0.53669 5903 ft 279 kts 106°
2026-04-14 11:16 51.30829 0.56694 5908 ft 278 kts 106°
2026-04-14 11:16 51.30392 0.59703 5913 ft 277 kts 106°
2026-04-14 11:17 51.29906 0.62694 5921 ft 278 kts 109°
2026-04-14 11:17 51.29372 0.65664 5929 ft 278 kts 109°
2026-04-14 11:17 51.28823 0.68611 5936 ft 277 kts 109°
2026-04-14 11:17 51.28267 0.71565 5949 ft 277 kts 110°
2026-04-14 11:18 51.27721 0.74477 5948 ft 277 kts 109°
2026-04-14 11:18 51.27166 0.77471 5976 ft 278 kts 109°
2026-04-14 11:18 51.26621 0.80434 5970 ft 278 kts 110°
2026-04-14 11:18 51.26079 0.83387 5987 ft 277 kts 109°
2026-04-14 11:19 51.25532 0.86351 6163 ft 281 kts 109°
2026-04-14 11:19 51.24981 0.89314 7149 ft 283 kts 109°
2026-04-14 11:19 51.24415 0.92350 8114 ft 288 kts 109°
2026-04-14 11:19 51.23837 0.95456 9028 ft 295 kts 108°
2026-04-14 11:20 51.23251 0.98615 9967 ft 300 kts 107°
2026-04-14 11:20 51.22645 1.01884 10505 ft 318 kts 107°
2026-04-14 11:20 51.21994 1.05387 10811 ft 341 kts 107°
2026-04-14 11:20 51.21305 1.09086 11394 ft 352 kts 107°
2026-04-14 11:21 51.20600 1.12864 12131 ft 358 kts 107°
2026-04-14 11:21 51.19883 1.16692 12929 ft 362 kts 107°
2026-04-14 11:21 51.19159 1.20563 13692 ft 367 kts 107°
2026-04-14 11:21 51.18420 1.24484 14402 ft 372 kts 107°
2026-04-14 11:22 51.17666 1.28454 15088 ft 376 kts 107°
2026-04-14 11:22 51.16905 1.32461 15775 ft 380 kts 107°
2026-04-14 11:22 51.16267 1.36572 16444 ft 384 kts 98°
2026-04-14 11:22 51.16026 1.40823 17109 ft 388 kts 93°
2026-04-14 11:23 51.15835 1.45119 17834 ft 390 kts 94°
2026-04-14 11:23 51.15631 1.49445 18536 ft 393 kts 94°
2026-04-14 11:23 51.15417 1.53814 19129 ft 398 kts 93°
2026-04-14 11:23 51.15201 1.58238 19721 ft 402 kts 93°
2026-04-14 11:24 51.14980 1.62709 20312 ft 407 kts 92°
2026-04-14 11:24 51.14759 1.67164 20887 ft 412 kts 92°
2026-04-14 11:24 51.14532 1.71739 21456 ft 416 kts 92°
2026-04-14 11:24 51.14301 1.76364 22015 ft 421 kts 92°
2026-04-14 11:25 51.14066 1.81040 22559 ft 426 kts 92°
2026-04-14 11:25 51.13825 1.85764 23117 ft 430 kts 91°
2026-04-14 11:25 51.13577 1.90543 23660 ft 435 kts 91°
2026-04-14 11:25 51.13323 1.95356 24201 ft 436 kts 91°
2026-04-14 11:26 51.13070 2.00181 24667 ft 439 kts 91°
2026-04-14 11:26 51.12818 2.05044 25113 ft 443 kts 91°
2026-04-14 11:26 51.12558 2.09948 25543 ft 446 kts 91°
2026-04-14 11:26 51.12294 2.14884 25968 ft 450 kts 91°
2026-04-14 11:27 51.12024 2.19875 26374 ft 453 kts 91°
2026-04-14 11:27 51.11750 2.24890 26778 ft 457 kts 91°
2026-04-14 11:27 51.11473 2.29941 27179 ft 460 kts 90°
2026-04-14 11:27 51.11196 2.34970 27571 ft 463 kts 90°
2026-04-14 11:28 51.10912 2.40104 28015 ft 465 kts 90°
2026-04-14 11:28 51.10623 2.45239 28477 ft 467 kts 90°
2026-04-14 11:28 51.10328 2.50408 28905 ft 470 kts 90°
2026-04-14 11:28 51.10029 2.55607 29298 ft 473 kts 90°
2026-04-14 11:29 51.09728 2.60833 29684 ft 476 kts 90°
2026-04-14 11:29 51.09264 2.66087 30054 ft 484 kts 98°
2026-04-14 11:29 51.08391 2.71286 30397 ft 489 kts 102°
2026-04-14 11:29 51.07441 2.76501 30723 ft 492 kts 102°
2026-04-14 11:30 51.06485 2.81736 31066 ft 494 kts 102°
2026-04-14 11:30 51.05526 2.86984 31421 ft 495 kts 102°
2026-04-14 11:30 51.04567 2.92227 31902 ft 493 kts 102°
2026-04-14 11:30 51.03610 2.97457 32372 ft 491 kts 102°
2026-04-14 11:31 51.02657 3.02659 32866 ft 489 kts 102°
2026-04-14 11:31 51.01706 3.07840 33328 ft 488 kts 102°
2026-04-14 11:31 51.00757 3.13007 33799 ft 487 kts 103°
2026-04-14 11:31 50.99805 3.18163 34264 ft 486 kts 103°
2026-04-14 11:32 50.98850 3.23312 34665 ft 485 kts 103°
2026-04-14 11:32 50.97905 3.28390 35043 ft 485 kts 103°
2026-04-14 11:32 50.96947 3.33529 35185 ft 484 kts 103°
2026-04-14 11:32 50.95996 3.38615 35205 ft 481 kts 103°
2026-04-14 11:33 50.94087 3.48770 35202 ft 479 kts 103°
2026-04-14 11:34 50.91217 3.63935 35206 ft 479 kts 103°
2026-04-14 11:34 50.89296 3.74033 35203 ft 479 kts 103°
2026-04-14 11:35 50.87341 3.84109 35231 ft 479 kts 104°
2026-04-14 11:35 50.85370 3.94178 35226 ft 479 kts 104°
2026-04-14 11:36 50.83442 4.04068 35228 ft 478 kts 104°
2026-04-14 11:36 50.81452 4.14232 35228 ft 478 kts 104°
2026-04-14 11:37 50.79470 4.24272 35217 ft 478 kts 104°
2026-04-14 11:37 50.77481 4.34301 35225 ft 478 kts 104°
2026-04-14 11:38 50.75486 4.44308 35229 ft 478 kts 104°
2026-04-14 11:38 50.73477 4.54319 35225 ft 478 kts 104°
2026-04-14 11:39 50.71473 4.64302 35227 ft 477 kts 104°
2026-04-14 11:39 50.69534 4.74313 35241 ft 477 kts 103°
2026-04-14 11:40 50.67606 4.84315 35236 ft 476 kts 104°
2026-04-14 11:40 50.65654 4.94314 35236 ft 476 kts 104°
2026-04-14 11:41 50.63635 5.04238 35234 ft 476 kts 105°
2026-04-14 11:41 50.61579 5.14090 35249 ft 476 kts 105°
2026-04-14 11:42 50.59511 5.23991 35245 ft 475 kts 105°
2026-04-14 11:42 50.57456 5.33858 35241 ft 474 kts 105°
2026-04-14 11:43 50.55400 5.43724 35232 ft 474 kts 105°
2026-04-14 11:43 50.53350 5.53499 35229 ft 473 kts 105°
2026-04-14 11:44 50.51275 5.63326 35241 ft 473 kts 105°
2026-04-14 11:44 50.49352 5.73184 35234 ft 471 kts 103°
2026-04-14 11:45 50.47569 5.83069 35225 ft 470 kts 103°
2026-04-14 11:45 50.45768 5.92937 35223 ft 470 kts 103°
2026-04-14 11:46 50.43911 6.02767 35222 ft 470 kts 104°
2026-04-14 11:46 50.42972 6.07663 34615 ft 467 kts 104°
2026-04-14 11:46 50.42350 6.10897 33783 ft 467 kts 104°
2026-04-14 11:46 50.41413 6.15771 32672 ft 468 kts 104°
2026-04-14 11:47 50.40470 6.20679 31697 ft 473 kts 104°
2026-04-14 11:47 50.39222 6.27159 30993 ft 464 kts 104°
2026-04-14 11:47 50.38593 6.30425 30561 ft 462 kts 104°
2026-04-14 11:47 50.37370 6.36788 29690 ft 457 kts 104°
2026-04-14 11:48 50.36539 6.41552 29104 ft 449 kts 98°
2026-04-14 11:48 50.36222 6.44737 28717 ft 443 kts 93°
2026-04-14 11:48 50.35942 6.49503 28147 ft 437 kts 93°
2026-04-14 11:48 50.35657 6.54225 27566 ft 433 kts 94°
2026-04-14 11:49 50.35363 6.58881 27004 ft 429 kts 94°
2026-04-14 11:49 50.35065 6.63506 26452 ft 424 kts 94°
2026-04-14 11:49 50.34766 6.68081 25908 ft 421 kts 94°
2026-04-14 11:49 50.34466 6.72640 25382 ft 418 kts 94°
2026-04-14 11:50 50.34170 6.77151 24864 ft 415 kts 94°
2026-04-14 11:50 50.33884 6.81634 24360 ft 413 kts 95°
2026-04-14 11:50 50.33378 6.86046 23872 ft 412 kts 104°
2026-04-14 11:51 50.31201 6.94282 22858 ft 406 kts 115°
2026-04-14 11:51 50.30008 6.98260 22385 ft 402 kts 115°
2026-04-14 11:51 50.28827 7.02210 21890 ft 399 kts 115°
2026-04-14 11:51 50.27671 7.06089 21367 ft 398 kts 115°
2026-04-14 11:52 50.26506 7.10007 20848 ft 395 kts 115°
2026-04-14 11:52 50.25354 7.13884 20337 ft 393 kts 115°
2026-04-14 11:52 50.24202 7.17743 19827 ft 390 kts 115°
2026-04-14 11:52 50.23056 7.21563 19321 ft 387 kts 115°
2026-04-14 11:53 50.21913 7.25357 18813 ft 384 kts 115°
2026-04-14 11:53 50.20780 7.29112 18290 ft 381 kts 115°
2026-04-14 11:53 50.19660 7.32836 17776 ft 376 kts 114°
2026-04-14 11:53 50.18640 7.36572 17284 ft 371 kts 111°
2026-04-14 11:54 50.17723 7.40318 16809 ft 368 kts 109°
2026-04-14 11:54 50.16862 7.44057 16328 ft 365 kts 109°
2026-04-14 11:54 50.16020 7.47780 15850 ft 363 kts 109°
2026-04-14 11:54 50.15180 7.51468 15384 ft 359 kts 110°
2026-04-14 11:55 50.14331 7.55113 14912 ft 357 kts 110°
2026-04-14 11:55 50.13481 7.58689 14450 ft 355 kts 111°
2026-04-14 11:55 50.12618 7.62285 13989 ft 353 kts 111°
2026-04-14 11:55 50.11760 7.65850 13494 ft 349 kts 111°
2026-04-14 11:56 50.10739 7.69250 13048 ft 344 kts 122°
2026-04-14 11:56 50.09389 7.72319 12958 ft 343 kts 127°
2026-04-14 11:56 50.08022 7.75380 12878 ft 345 kts 126°
2026-04-14 11:56 50.06663 7.78446 12772 ft 344 kts 126°
2026-04-14 11:57 50.05314 7.81501 12653 ft 341 kts 126°
2026-04-14 11:57 50.03969 7.84534 12523 ft 340 kts 126°
2026-04-14 11:57 50.02616 7.87535 12402 ft 339 kts 127°
2026-04-14 11:57 50.01258 7.90534 12273 ft 338 kts 127°
2026-04-14 11:58 49.99904 7.93522 12141 ft 338 kts 127°
2026-04-14 11:58 49.98555 7.96504 12015 ft 337 kts 127°
2026-04-14 11:58 49.97202 7.99465 11883 ft 336 kts 128°
2026-04-14 11:58 49.95553 8.01987 11757 ft 332 kts 147°
2026-04-14 11:59 49.93483 8.03498 11631 ft 328 kts 167°
2026-04-14 11:59 49.91237 8.03818 11490 ft 324 kts 186°
2026-04-14 11:59 49.89074 8.02946 11234 ft 321 kts 206°
2026-04-14 11:59 49.87245 8.01023 10988 ft 318 kts 225°
2026-04-14 12:00 49.85930 7.98292 10743 ft 317 kts 243°
2026-04-14 12:00 49.85259 7.95056 10502 ft 317 kts 262°
2026-04-14 12:00 49.85306 7.91656 10260 ft 317 kts 281°
2026-04-14 12:00 49.86054 7.88526 10074 ft 310 kts 298°
2026-04-14 12:01 49.87161 7.85740 9944 ft 297 kts 301°
2026-04-14 12:01 49.88227 7.83063 9810 ft 287 kts 301°
2026-04-14 12:01 49.89483 7.80709 9669 ft 284 kts 320°
2026-04-14 12:01 49.91208 7.79247 9536 ft 284 kts 343°
2026-04-14 12:02 49.93162 7.78940 9404 ft 284 kts
2026-04-14 12:02 49.95092 7.79510 9274 ft 283 kts 21°
2026-04-14 12:02 49.96746 7.81146 9135 ft 283 kts 44°
2026-04-14 12:02 49.97868 7.83637 9003 ft 284 kts 66°
2026-04-14 12:03 49.98289 7.86620 8872 ft 285 kts 89°
2026-04-14 12:03 49.97931 7.89630 8737 ft 286 kts 112°
2026-04-14 12:03 49.96939 7.92364 8066 ft 298 kts 122°
2026-04-14 12:03 49.95777 7.95130 7147 ft 314 kts 122°
2026-04-14 12:04 49.94545 7.98023 6159 ft 329 kts 121°
2026-04-14 12:04 49.93285 8.00974 5801 ft 321 kts 121°
2026-04-14 12:04 49.92090 8.03769 5670 ft 307 kts 121°
2026-04-14 12:04 49.91131 8.06652 5535 ft 290 kts 104°
2026-04-14 12:05 49.90924 8.09609 5409 ft 268 kts 82°
2026-04-14 12:05 49.91369 8.12267 5258 ft 244 kts 62°
2026-04-14 12:05 49.92248 8.14342 5197 ft 218 kts 49°
2026-04-14 12:05 49.93168 8.16076 5149 ft 201 kts 49°
2026-04-14 12:06 49.94025 8.17721 5070 ft 190 kts 52°
2026-04-14 12:06 49.94598 8.19536 4920 ft 187 kts 67°
2026-04-14 12:06 49.95051 8.21420 4635 ft 186 kts 66°
2026-04-14 12:06 49.95494 8.23262 4347 ft 177 kts 67°
2026-04-14 12:07 49.95913 8.24999 4111 ft 166 kts 66°
2026-04-14 12:07 49.96294 8.26581 3999 ft 146 kts 66°
2026-04-14 12:07 49.96635 8.27995 3910 ft 136 kts 65°
2026-04-14 12:07 49.96969 8.29378 3892 ft 137 kts 64°
2026-04-14 12:08 49.97301 8.30768 3729 ft 137 kts 67°
2026-04-14 12:08 49.97619 8.32160 3532 ft 136 kts 64°
2026-04-14 12:08 49.97949 8.33552 3330 ft 136 kts 62°
2026-04-14 12:08 49.98270 8.34936 3123 ft 138 kts 62°
2026-04-14 12:09 49.98583 8.36349 2868 ft 138 kts 61°
2026-04-14 12:09 49.98910 8.37749 2585 ft 137 kts 60°
2026-04-14 12:09 49.99269 8.39123 2321 ft 136 kts 59°
2026-04-14 12:09 49.99626 8.40488 2097 ft 135 kts 58°
2026-04-14 12:10 49.99979 8.41817 1927 ft 134 kts 65°
2026-04-14 12:10 50.00329 8.43169 1847 ft 135 kts 66°
2026-04-14 12:10 50.00664 8.44543 1662 ft 135 kts 67°
2026-04-14 12:10 50.00990 8.45907 1397 ft 134 kts 66°
2026-04-14 12:11 50.01308 8.47270 1197 ft 133 kts 68°
2026-04-14 12:11 50.01676 8.48607 1044 ft 134 kts 72°
2026-04-14 12:11 50.01946 8.50011 892 ft 136 kts 71°
2026-04-14 12:11 50.02247 8.51409 700 ft 138 kts 64°
2026-04-14 12:12 50.02624 8.52757 499 ft 135 kts 67°
2026-04-14 12:12 50.02913 8.54132 366 ft 133 kts 62°
2026-04-14 12:12 50.03224 8.55369 350 ft 105 kts 69°
2026-04-14 12:12 50.03419 8.56186 354 ft 56 kts 69°
2026-04-14 12:13 50.03495 8.56515 356 ft 22 kts 70°
2026-04-14 12:13 50.03577 8.56849 356 ft 24 kts 68°
2026-04-14 12:13 50.03686 8.57057 355 ft 25 kts 43°
2026-04-14 12:13 50.03774 8.57177 362 ft 6 kts 40°
2026-04-14 12:14 50.03792 8.57201 359 ft 2 kts 40°
2026-04-14 12:14 50.03825 8.57242 360 ft 9 kts 39°
2026-04-14 12:14 50.03878 8.57310 363 ft 11 kts 39°
2026-04-14 12:14 50.03940 8.57395 364 ft 12 kts 48°
2026-04-14 12:15 50.03971 8.57479 365 ft 14 kts 69°
2026-04-14 12:15 50.04009 8.57637 369 ft 17 kts 69°
2026-04-14 12:15 50.04055 8.57824 369 ft 20 kts 69°
2026-04-14 12:15 50.04108 8.58049 369 ft 23 kts 69°
2026-04-14 12:16 50.04164 8.58284 370 ft 24 kts 69°
2026-04-14 12:16 50.04226 8.58540 373 ft 27 kts 69°
2026-04-14 12:16 50.04291 8.58810 373 ft 25 kts 70°
2026-04-14 12:16 50.04352 8.59066 377 ft 25 kts 69°
2026-04-14 12:17 50.04415 8.59327 376 ft 17 kts 70°
2026-04-14 12:17 50.04421 8.59356 376 ft 2 kts 70°
2026-04-14 12:17 50.04431 8.59397 376 ft 6 kts 70°
2026-04-14 12:17 50.04461 8.59461 375 ft 10 kts 32°
2026-04-14 12:18 50.04544 8.59469 374 ft 15 kts 358°
2026-04-14 12:18 50.04631 8.59460 373 ft 8 kts 355°
2026-04-14 12:18 50.04702 8.59439 372 ft 12 kts 342°
2026-04-14 12:18 50.04748 8.59409 372 ft 1 kts 339°
2026-04-14 12:19 50.04771 8.59397 372 ft 5 kts 342°
2026-04-14 12:19 50.04824 8.59372 370 ft 10 kts 342°
2026-04-14 12:19 50.04903 8.59369 368 ft 14 kts
2026-04-14 12:19 50.05017 8.59326 365 ft 15 kts 340°
2026-04-14 12:20 50.05076 8.59194 360 ft 19 kts 263°
2026-04-14 12:20 50.05026 8.58987 362 ft 21 kts 249°
2026-04-14 12:20 50.04995 8.58859 361 ft 5 kts 250°
2026-04-14 12:20 50.04981 8.58804 363 ft 6 kts 243°
2026-04-14 12:21 50.04957 8.58773 360 ft 1 kts 204°
2026-04-14 12:21 50.04920 8.58780 366 ft 0 kts 156°
2026-04-14 12:21 50.04916 8.58783 364 ft 1 kts 151°
2026-04-14 12:21 50.04907 8.58791 363 ft 2 kts 155°
2026-04-14 12:22 50.04900 8.58796 362 ft 0 kts 158°